Find Starlink 11464

NORAD ID: 62473 Int'l Des: 2024-254 Owner: SPXS Country: US Constellation: starlink operational
LEOCIRCULAR

Live Position

Loading 3D Globe...

About Starlink 11464

Description loading...

Upcoming Passes

Passes for default location (London). Set your location on the main map for personalized predictions.

Altitude History

Loading altitude history...

Two-Line Element Set

1 62473U 24254M 26122.44462904 .00185234 00000-0 14078-2 0 9990
2 62473 42.9990 259.1241 0004263 287.4059 72.6342 15.70956772 77907
Epoch: May 2, 2026 • Age: 8 hours

Current Status

Altitude 356.8 km
Velocity 7.70 km/s
Sub-Earth Point -14.72°S, 107.17°E
Launch Date Dec 31, 2024
Age 1.3 years
Type internet

Technical Details

Classification Payload
Mass 960.00 kg
Dry Mass 910.00 kg
Total Mass 960.00 kg
Length 0.30 m
Diameter 4.10 m
Span 29.00 m
Shape Box + pan
Manufacturer SPXS
Bus Type Starlink V2MD
Phase Status In Orbit
Owner/State SPXS/US

Most Searched